Time,TemperatureF,DewpointF,PressureIn,WindDirection,WindDirectionDegrees,WindSpeedMPH,WindSpeedGustMPH,Humidity,HourlyPrecipIn,Conditions,Clouds,dailyrainin,SoftwareType,DateUTC
2013-05-12 00:00:00,65.8,53.7,30.14,ESE,117,0.0,0.0,65,0.00,,FEW045,0.01,VWS V14.01,2013-05-12 05:00:00,
2013-05-12 00:01:00,65.6,54.4,30.14,ESE,117,0.0,0.0,67,0.00,,CLR,0.00,VWS V14.01,2013-05-12 05:01:00,
2013-05-12 00:06:00,65.6,54.4,30.14,ESE,117,0.0,0.0,67,0.00,,CLR,0.00,VWS V14.01,2013-05-12 05:06:00,
2013-05-12 00:10:00,65.8,54.5,30.14,ESE,117,0.0,0.0,67,0.00,,FEW045,0.00,VWS V14.01,2013-05-12 05:10:00,
2013-05-12 00:11:00,65.5,53.4,30.14,ESE,117,0.0,0.0,65,0.00,,CLR,0.00,VWS V14.01,2013-05-12 05:11:00,
2013-05-12 00:16:00,65.5,53.4,30.14,ESE,117,0.0,0.0,65,0.00,,CLR,0.00,VWS V14.01,2013-05-12 05:16:00,
2013-05-12 00:20:00,65.6,54.4,30.14,ESE,117,0.0,0.0,67,0.00,,FEW045,0.00,VWS V14.01,2013-05-12 05:20:00,
2013-05-12 00:21:00,65.5,53.0,30.14,ESE,117,0.0,0.0,64,0.00,,CLR,0.00,VWS V14.01,2013-05-12 05:21:00,
2013-05-12 00:26:00,65.5,52.6,30.14,ESE,117,0.0,0.0,63,0.00,,CLR,0.00,VWS V14.01,2013-05-12 05:26:00,
2013-05-12 00:30:00,65.5,53.0,30.14,ESE,117,0.0,0.0,64,0.00,,FEW045,0.00,VWS V14.01,2013-05-12 05:30:00,
2013-05-12 00:31:00,65.6,53.5,30.14,ESE,117,0.0,0.0,65,0.00,,CLR,0.00,VWS V14.01,2013-05-12 05:31:00,
2013-05-12 00:36:00,65.6,53.1,30.14,ESE,117,0.0,0.0,64,0.00,,CLR,0.00,VWS V14.01,2013-05-12 05:36:00,
2013-05-12 00:40:00,65.6,53.1,30.14,ESE,117,0.0,0.0,64,0.00,,FEW045,0.00,VWS V14.01,2013-05-12 05:40:00,
2013-05-12 00:41:00,65.5,53.0,30.14,ESE,117,0.0,0.0,64,0.00,,CLR,0.00,VWS V14.01,2013-05-12 05:41:00,
2013-05-12 00:46:00,65.5,53.0,30.14,ESE,117,0.0,0.0,64,0.00,,CLR,0.00,VWS V14.01,2013-05-12 05:46:00,
2013-05-12 00:50:00,65.5,52.6,30.14,ESE,117,0.0,0.0,63,0.00,,FEW045,0.00,VWS V14.01,2013-05-12 05:50:00,
2013-05-12 00:51:00,65.3,52.8,30.13,ESE,117,0.0,0.0,64,0.00,,CLR,0.00,VWS V14.01,2013-05-12 05:51:00,
2013-05-12 00:56:00,65.3,52.4,30.13,ESE,117,0.0,0.0,63,0.00,,CLR,0.00,VWS V14.01,2013-05-12 05:56:00,
2013-05-12 01:00:00,65.5,53.0,30.13,ESE,117,0.0,0.0,64,0.00,,FEW045,0.00,VWS V14.01,2013-05-12 06:00:00,
2013-05-12 01:01:00,65.3,52.0,30.13,ESE,117,0.0,0.0,62,0.00,,CLR,0.00,VWS V14.01,2013-05-12 06:01:00,
2013-05-12 01:06:00,65.1,51.3,30.13,ESE,117,0.0,0.0,61,0.00,,CLR,0.00,VWS V14.01,2013-05-12 06:06:00,
2013-05-12 01:10:00,65.3,52.4,30.13,ESE,117,0.0,0.0,63,0.00,,FEW045,0.00,VWS V14.01,2013-05-12 06:10:00,
2013-05-12 01:11:00,65.1,51.8,30.13,ESE,117,0.0,0.0,62,0.00,,CLR,0.00,VWS V14.01,2013-05-12 06:11:00,
2013-05-12 01:16:00,65.1,51.8,30.13,ESE,117,0.0,0.0,62,0.00,,CLR,0.00,VWS V14.01,2013-05-12 06:16:00,
2013-05-12 01:20:00,65.1,51.3,30.13,ESE,117,0.0,0.0,61,0.00,,FEW045,0.00,VWS V14.01,2013-05-12 06:20:00,
2013-05-12 01:21:00,65.1,50.9,30.13,ESE,117,0.0,0.0,60,0.00,,CLR,0.00,VWS V14.01,2013-05-12 06:21:00,
2013-05-12 01:26:00,65.1,51.8,30.13,ESE,117,0.0,0.0,62,0.00,,CLR,0.00,VWS V14.01,2013-05-12 06:26:00,
2013-05-12 01:30:00,65.1,51.3,30.13,ESE,117,0.0,0.0,61,0.00,,FEW045,0.00,VWS V14.01,2013-05-12 06:30:00,
2013-05-12 01:31:00,65.1,51.3,30.13,ESE,117,0.0,0.0,61,0.00,,CLR,0.00,VWS V14.01,2013-05-12 06:31:00,
2013-05-12 01:36:00,65.0,50.8,30.12,ESE,117,0.0,0.0,60,0.00,,CLR,0.00,VWS V14.01,2013-05-12 06:36:00,
2013-05-12 01:40:00,65.1,51.8,30.13,ESE,117,0.0,0.0,62,0.00,,FEW045,0.00,VWS V14.01,2013-05-12 06:40:00,
2013-05-12 01:41:00,65.0,50.8,30.12,ESE,117,0.0,0.0,60,0.00,,CLR,0.00,VWS V14.01,2013-05-12 06:41:00,
2013-05-12 01:46:00,65.0,49.9,30.12,ESE,117,0.0,0.0,58,0.00,,CLR,0.00,VWS V14.01,2013-05-12 06:46:00,
2013-05-12 01:50:00,65.0,50.3,30.12,ESE,117,0.0,0.0,59,0.00,,FEW045,0.00,VWS V14.01,2013-05-12 06:50:00,
2013-05-12 01:51:00,65.1,50.0,30.12,ESE,117,0.0,0.0,58,0.00,,CLR,0.00,VWS V14.01,2013-05-12 06:51:00,
2013-05-12 01:56:00,65.1,50.4,30.12,ESE,117,0.0,0.0,59,0.00,,CLR,0.00,VWS V14.01,2013-05-12 06:56:00,
2013-05-12 02:00:00,65.0,49.4,30.12,ESE,117,0.0,0.0,57,0.00,,CLR,0.00,VWS V14.01,2013-05-12 07:00:00,
2013-05-12 02:01:00,65.1,50.0,30.12,ESE,117,0.0,0.0,58,0.00,,CLR,0.00,VWS V14.01,2013-05-12 07:01:00,
2013-05-12 02:06:00,65.0,50.3,30.12,ESE,117,0.0,0.0,59,0.00,,CLR,0.00,VWS V14.01,2013-05-12 07:06:00,
2013-05-12 02:10:00,65.1,50.0,30.12,ESE,117,0.0,0.0,58,0.00,,FEW045,0.00,VWS V14.01,2013-05-12 07:10:00,
2013-05-12 02:11:00,65.0,50.3,30.12,ESE,117,0.0,0.0,59,0.00,,CLR,0.00,VWS V14.01,2013-05-12 07:11:00,
2013-05-12 02:16:00,64.8,50.6,30.12,ESE,117,0.0,0.0,60,0.00,,CLR,0.00,VWS V14.01,2013-05-12 07:16:00,
2013-05-12 02:20:00,65.0,50.3,30.12,ESE,117,0.0,0.0,59,0.00,,FEW045,0.00,VWS V14.01,2013-05-12 07:20:00,
2013-05-12 02:21:00,64.7,50.5,30.11,ESE,117,0.0,0.0,60,0.00,,CLR,0.00,VWS V14.01,2013-05-12 07:21:00,
2013-05-12 02:26:00,64.7,51.4,30.11,ESE,117,0.0,0.0,62,0.00,,CLR,0.00,VWS V14.01,2013-05-12 07:26:00,
2013-05-12 02:30:00,64.8,50.6,30.11,ESE,117,0.0,0.0,60,0.00,,FEW045,0.00,VWS V14.01,2013-05-12 07:30:00,
2013-05-12 02:31:00,64.5,51.6,30.11,ESE,117,0.0,0.0,63,0.00,,CLR,0.00,VWS V14.01,2013-05-12 07:31:00,
2013-05-12 02:36:00,64.2,50.9,30.12,ESE,117,0.0,0.0,62,0.00,,CLR,0.00,VWS V14.01,2013-05-12 07:36:00,
2013-05-12 02:40:00,64.7,51.4,30.11,ESE,117,0.0,0.0,62,0.00,,FEW045,0.00,VWS V14.01,2013-05-12 07:40:00,
2013-05-12 02:41:00,63.8,51.0,30.12,ESE,117,0.0,0.0,63,0.00,,CLR,0.00,VWS V14.01,2013-05-12 07:41:00,
2013-05-12 02:46:00,63.7,50.5,30.12,ESE,117,0.0,0.0,62,0.00,,CLR,0.00,VWS V14.01,2013-05-12 07:46:00,
2013-05-12 02:50:00,64.2,50.9,30.12,ESE,117,0.0,0.0,62,0.00,,FEW045,0.00,VWS V14.01,2013-05-12 07:50:00,
2013-05-12 02:51:00,63.4,51.9,30.11,ESE,117,0.0,0.0,66,0.00,,CLR,0.00,VWS V14.01,2013-05-12 07:51:00,
2013-05-12 02:56:00,63.0,51.5,30.11,ESE,117,0.0,0.0,66,0.00,,CLR,0.00,VWS V14.01,2013-05-12 07:56:00,
2013-05-12 03:00:00,63.5,51.1,30.11,ESE,117,0.0,0.0,64,0.00,,FEW045,0.00,VWS V14.01,2013-05-12 08:00:00,
2013-05-12 03:01:00,62.7,51.2,30.11,ESE,117,0.0,0.0,66,0.00,,CLR,0.00,VWS V14.01,2013-05-12 08:01:00,
2013-05-12 03:06:00,62.4,51.7,30.11,ESE,117,0.0,0.0,68,0.00,,CLR,0.00,VWS V14.01,2013-05-12 08:06:00,
2013-05-12 03:10:00,62.9,51.8,30.11,ESE,117,0.0,0.0,67,0.00,,FEW045,0.00,VWS V14.01,2013-05-12 08:10:00,
2013-05-12 03:11:00,62.1,51.4,30.11,ESE,117,0.0,0.0,68,0.00,,CLR,0.00,VWS V14.01,2013-05-12 08:11:00,
2013-05-12 03:16:00,61.6,50.5,30.11,ESE,117,0.0,0.0,67,0.00,,CLR,0.00,VWS V14.01,2013-05-12 08:16:00,
2013-05-12 03:20:00,62.2,51.5,30.11,ESE,117,0.0,0.0,68,0.00,,FEW045,0.00,VWS V14.01,2013-05-12 08:20:00,
2013-05-12 03:21:00,61.3,50.7,30.10,ESE,117,0.0,0.0,68,0.00,,CLR,0.00,VWS V14.01,2013-05-12 08:21:00,
2013-05-12 03:26:00,61.0,51.2,30.10,ESE,117,0.0,0.0,70,0.00,,CLR,0.00,VWS V14.01,2013-05-12 08:26:00,
2013-05-12 03:30:00,60.8,51.0,30.10,ESE,117,0.0,0.0,70,0.00,,CLR,0.00,VWS V14.01,2013-05-12 08:30:00,
2013-05-12 03:35:00,60.5,50.7,30.10,ESE,117,0.0,0.0,70,0.00,,CLR,0.00,VWS V14.01,2013-05-12 08:35:00,
2013-05-12 03:40:00,60.2,50.8,30.10,ESE,117,0.0,0.0,71,0.00,,CLR,0.00,VWS V14.01,2013-05-12 08:40:00,
2013-05-12 03:45:00,59.9,50.5,30.10,ESE,117,0.0,0.0,71,0.00,,CLR,0.00,VWS V14.01,2013-05-12 08:45:00,
2013-05-12 03:50:00,59.7,51.0,30.11,ESE,117,0.0,0.0,73,0.00,,CLR,0.00,VWS V14.01,2013-05-12 08:50:00,
2013-05-12 03:55:00,59.6,51.3,30.11,ESE,117,0.0,0.0,74,0.00,,CLR,0.00,VWS V14.01,2013-05-12 08:55:00,
2013-05-12 04:00:00,59.4,51.1,30.11,ESE,117,0.0,0.0,74,0.00,,CLR,0.00,VWS V14.01,2013-05-12 09:00:00,
2013-05-12 04:05:00,59.3,51.0,30.10,ESE,117,0.0,0.0,74,0.00,,CLR,0.00,VWS V14.01,2013-05-12 09:05:00,
2013-05-12 04:10:00,59.1,50.8,30.10,ESE,117,0.0,0.0,74,0.00,,CLR,0.00,VWS V14.01,2013-05-12 09:10:00,
2013-05-12 04:15:00,59.1,50.5,30.10,ESE,117,0.0,0.0,73,0.00,,CLR,0.00,VWS V14.01,2013-05-12 09:15:00,
2013-05-12 04:20:00,59.0,50.4,30.11,ESE,117,0.0,0.0,73,0.00,,CLR,0.00,VWS V14.01,2013-05-12 09:20:00,
2013-05-12 04:25:00,59.0,50.4,30.11,ESE,117,0.0,0.0,73,0.00,,CLR,0.00,VWS V14.01,2013-05-12 09:25:00,
2013-05-12 04:30:00,58.8,49.8,30.11,ESE,117,0.0,0.0,72,0.00,,CLR,0.00,VWS V14.01,2013-05-12 09:30:00,
2013-05-12 04:35:00,58.8,50.2,30.12,ESE,117,0.0,0.0,73,0.00,,CLR,0.00,VWS V14.01,2013-05-12 09:35:00,
2013-05-12 04:40:00,58.8,50.2,30.12,ESE,117,0.0,0.0,73,0.00,,CLR,0.00,VWS V14.01,2013-05-12 09:40:00,
2013-05-12 04:45:00,58.7,50.5,30.12,ESE,117,0.0,0.0,74,0.00,,CLR,0.00,VWS V14.01,2013-05-12 09:45:00,
2013-05-12 04:50:00,58.5,49.9,30.12,ESE,117,0.0,0.0,73,0.00,,CLR,0.00,VWS V14.01,2013-05-12 09:50:00,
2013-05-12 04:55:00,58.5,49.9,30.12,ESE,117,0.0,0.0,73,0.00,,CLR,0.00,VWS V14.01,2013-05-12 09:55:00,
2013-05-12 05:00:00,58.5,49.9,30.12,ESE,117,0.0,0.0,73,0.00,,CLR,0.00,VWS V14.01,2013-05-12 10:00:00,
2013-05-12 05:05:00,58.2,49.6,30.12,ESE,117,0.0,0.0,73,0.00,,CLR,0.00,VWS V14.01,2013-05-12 10:05:00,
2013-05-12 05:10:00,58.1,49.5,30.12,ESE,117,0.0,0.0,73,0.00,,CLR,0.00,VWS V14.01,2013-05-12 10:10:00,
2013-05-12 05:15:00,58.1,49.5,30.12,ESE,117,0.0,0.0,73,0.00,,CLR,0.00,VWS V14.01,2013-05-12 10:15:00,
2013-05-12 05:20:00,57.9,49.3,30.12,ESE,117,0.0,0.0,73,0.00,,CLR,0.00,VWS V14.01,2013-05-12 10:20:00,
2013-05-12 05:25:00,57.9,49.3,30.12,ESE,117,0.0,0.0,73,0.00,,CLR,0.00,VWS V14.01,2013-05-12 10:25:00,
2013-05-12 05:30:00,57.9,48.6,30.12,ESE,117,0.0,0.0,71,0.00,,CLR,0.00,VWS V14.01,2013-05-12 10:30:00,
2013-05-12 05:35:00,58.1,49.1,30.12,ESE,117,0.0,0.0,72,0.00,,CLR,0.00,VWS V14.01,2013-05-12 10:35:00,
2013-05-12 05:40:00,58.2,49.2,30.12,ESE,117,0.0,0.0,72,0.00,,CLR,0.00,VWS V14.01,2013-05-12 10:40:00,
2013-05-12 05:45:00,58.2,48.8,30.12,SE,138,0.0,2.0,71,0.00,,CLR,0.00,VWS V14.01,2013-05-12 10:45:00,
2013-05-12 05:50:00,58.4,48.7,30.12,SE,138,0.0,0.0,70,0.00,,CLR,0.00,VWS V14.01,2013-05-12 10:50:00,
2013-05-12 05:55:00,58.4,48.3,30.12,SE,138,0.0,0.0,69,0.00,,CLR,0.00,VWS V14.01,2013-05-12 10:55:00,
2013-05-12 06:00:00,58.4,49.0,30.12,SE,138,0.0,0.0,71,0.00,,CLR,0.00,VWS V14.01,2013-05-12 11:00:00,
2013-05-12 06:05:00,58.4,49.0,30.13,SE,138,0.0,0.0,71,0.00,,CLR,0.00,VWS V14.01,2013-05-12 11:05:00,
2013-05-12 06:10:00,58.2,48.8,30.13,SE,138,0.0,0.0,71,0.00,,CLR,0.00,VWS V14.01,2013-05-12 11:10:00,
2013-05-12 06:15:00,58.1,48.8,30.13,SE,138,0.0,0.0,71,0.00,,CLR,0.00,VWS V14.01,2013-05-12 11:15:00,
2013-05-12 06:20:00,57.9,49.7,30.13,SE,138,0.0,0.0,74,0.00,,CLR,0.00,VWS V14.01,2013-05-12 11:20:00,
2013-05-12 06:25:00,57.8,49.2,30.13,SE,138,0.0,0.0,73,0.00,,CLR,0.00,VWS V14.01,2013-05-12 11:25:00,
2013-05-12 06:30:00,57.6,49.0,30.13,SE,138,0.0,0.0,73,0.00,,CLR,0.00,VWS V14.01,2013-05-12 11:30:00,
2013-05-12 06:35:00,57.5,49.3,30.14,SE,138,0.0,0.0,74,0.00,,CLR,0.00,VWS V14.01,2013-05-12 11:35:00,
2013-05-12 06:40:00,57.1,48.9,30.14,SE,138,0.0,0.0,74,0.00,,CLR,0.00,VWS V14.01,2013-05-12 11:40:00,
2013-05-12 06:45:00,57.0,49.2,30.14,SE,138,0.0,0.0,75,0.00,,CLR,0.00,VWS V14.01,2013-05-12 11:45:00,
2013-05-12 06:50:00,56.8,49.0,30.15,SE,138,0.0,0.0,75,0.00,,CLR,0.00,VWS V14.01,2013-05-12 11:50:00,
2013-05-12 06:55:00,56.7,48.9,30.15,SE,138,0.0,0.0,75,0.00,,CLR,0.00,VWS V14.01,2013-05-12 11:55:00,
2013-05-12 07:00:00,56.5,49.0,30.15,SE,138,0.0,0.0,76,0.00,,CLR,0.00,VWS V14.01,2013-05-12 12:00:00,
2013-05-12 07:05:00,56.4,49.3,30.15,SE,138,0.0,0.0,77,0.00,,CLR,0.00,VWS V14.01,2013-05-12 12:05:00,
2013-05-12 07:10:00,56.4,50.0,30.15,SE,138,0.0,0.0,79,0.00,,CLR,0.00,VWS V14.01,2013-05-12 12:10:00,
2013-05-12 07:15:00,56.2,49.4,30.15,SE,138,0.0,0.0,78,0.00,,CLR,0.00,VWS V14.01,2013-05-12 12:15:00,
2013-05-12 07:20:00,56.1,49.3,30.16,SE,138,0.0,0.0,78,0.00,,CLR,0.00,VWS V14.01,2013-05-12 12:20:00,
2013-05-12 07:25:00,56.0,49.6,30.16,SE,138,0.0,0.0,79,0.00,,CLR,0.00,VWS V14.01,2013-05-12 12:25:00,
2013-05-12 07:30:00,56.0,49.6,30.16,SE,138,0.0,0.0,79,0.00,,CLR,0.00,VWS V14.01,2013-05-12 12:30:00,
2013-05-12 07:35:00,55.8,50.1,30.17,SE,138,0.0,0.0,81,0.00,,CLR,0.00,VWS V14.01,2013-05-12 12:35:00,
2013-05-12 07:40:00,56.0,50.9,30.17,SE,138,0.0,0.0,83,0.00,,CLR,0.00,VWS V14.01,2013-05-12 12:40:00,
2013-05-12 07:45:00,56.1,51.0,30.17,SE,138,0.0,0.0,83,0.00,,CLR,0.00,VWS V14.01,2013-05-12 12:45:00,
2013-05-12 07:50:00,56.2,51.1,30.18,SE,138,0.0,0.0,83,0.00,,CLR,0.00,VWS V14.01,2013-05-12 12:50:00,
2013-05-12 07:55:00,56.5,51.7,30.18,SE,138,0.0,0.0,84,0.00,,CLR,0.00,VWS V14.01,2013-05-12 12:55:00,
2013-05-12 08:00:00,57.0,52.2,30.18,SE,138,0.0,0.0,84,0.00,,CLR,0.00,VWS V14.01,2013-05-12 13:00:00,
2013-05-12 08:05:00,57.5,52.4,30.18,SE,138,0.0,0.0,83,0.00,,CLR,0.00,VWS V14.01,2013-05-12 13:05:00,
2013-05-12 08:10:00,57.9,52.8,30.18,SE,138,0.0,0.0,83,0.00,,CLR,0.00,VWS V14.01,2013-05-12 13:10:00,
2013-05-12 08:15:00,58.5,53.4,30.18,SE,138,0.0,0.0,83,0.00,,CLR,0.00,VWS V14.01,2013-05-12 13:15:00,
2013-05-12 08:20:00,59.3,53.8,30.20,SE,138,0.0,0.0,82,0.00,,CLR,0.00,VWS V14.01,2013-05-12 13:20:00,
2013-05-12 08:25:00,59.9,53.4,30.20,SE,138,0.0,0.0,79,0.00,,CLR,0.00,VWS V14.01,2013-05-12 13:25:00,
2013-05-12 08:30:00,60.5,52.5,30.20,SE,138,0.0,0.0,75,0.00,,CLR,0.00,VWS V14.01,2013-05-12 13:30:00,
2013-05-12 08:35:00,61.0,53.4,30.21,SE,138,0.0,0.0,76,0.00,,CLR,0.00,VWS V14.01,2013-05-12 13:35:00,
2013-05-12 08:40:00,61.5,53.5,30.21,SE,138,0.0,0.0,75,0.00,,CLR,0.00,VWS V14.01,2013-05-12 13:40:00,
2013-05-12 08:45:00,61.8,53.4,30.21,SE,138,0.0,0.0,74,0.00,,CLR,0.00,VWS V14.01,2013-05-12 13:45:00,
2013-05-12 08:50:00,62.1,54.1,30.21,SE,138,0.0,0.0,75,0.00,,CLR,0.00,VWS V14.01,2013-05-12 13:50:00,
2013-05-12 08:55:00,62.2,53.1,30.21,SE,138,0.0,0.0,72,0.00,,CLR,0.00,VWS V14.01,2013-05-12 13:55:00,
2013-05-12 09:00:00,62.6,54.2,30.21,SE,138,0.0,0.0,74,0.00,,CLR,0.00,VWS V14.01,2013-05-12 14:00:00,
2013-05-12 09:05:00,62.9,53.8,30.23,SE,138,0.0,0.0,72,0.00,,CLR,0.00,VWS V14.01,2013-05-12 14:05:00,
2013-05-12 09:10:00,63.0,54.2,30.23,SE,138,0.0,0.0,73,0.00,,CLR,0.00,VWS V14.01,2013-05-12 14:10:00,
2013-05-12 09:15:00,63.4,54.2,30.23,SE,138,0.0,0.0,72,0.00,,CLR,0.00,VWS V14.01,2013-05-12 14:15:00,
2013-05-12 09:20:00,63.5,54.3,30.23,SE,138,0.0,0.0,72,0.00,,CLR,0.00,VWS V14.01,2013-05-12 14:20:00,
2013-05-12 09:25:00,63.7,53.3,30.23,SE,138,0.0,0.0,69,0.00,,CLR,0.00,VWS V14.01,2013-05-12 14:25:00,
2013-05-12 09:30:00,64.0,54.0,30.23,SE,138,0.0,0.0,70,0.00,,CLR,0.00,VWS V14.01,2013-05-12 14:30:00,
2013-05-12 09:35:00,64.2,54.2,30.23,SE,138,0.0,0.0,70,0.00,,CLR,0.00,VWS V14.01,2013-05-12 14:35:00,
2013-05-12 09:40:00,64.5,55.3,30.23,SE,138,0.0,0.0,72,0.00,,CLR,0.00,VWS V14.01,2013-05-12 14:40:00,
2013-05-12 09:45:00,64.7,54.3,30.23,SE,132,0.0,4.0,69,0.00,,CLR,0.00,VWS V14.01,2013-05-12 14:45:00,
2013-05-12 09:50:00,64.8,54.0,30.23,SE,132,0.0,1.0,68,0.00,,CLR,0.00,VWS V14.01,2013-05-12 14:50:00,
2013-05-12 09:55:00,65.0,54.6,30.23,SE,132,0.0,1.0,69,0.00,,CLR,0.00,VWS V14.01,2013-05-12 14:55:00,
2013-05-12 10:00:00,65.1,53.9,30.23,SE,132,0.0,0.0,67,0.00,,CLR,0.00,VWS V14.01,2013-05-12 15:00:00,
2013-05-12 10:05:00,65.5,54.3,30.23,SE,132,0.0,0.0,67,0.00,,CLR,0.00,VWS V14.01,2013-05-12 15:05:00,
2013-05-12 10:10:00,65.6,54.0,30.23,SE,132,0.0,1.0,66,0.00,,CLR,0.00,VWS V14.01,2013-05-12 15:10:00,
2013-05-12 10:15:00,65.9,54.2,30.23,SE,132,0.0,1.0,66,0.00,,CLR,0.00,VWS V14.01,2013-05-12 15:15:00,
2013-05-12 10:20:00,66.3,54.2,30.23,SE,132,0.0,0.0,65,0.00,,CLR,0.00,VWS V14.01,2013-05-12 15:20:00,
2013-05-12 10:24:00,66.8,53.8,30.23,SE,132,0.0,1.0,63,0.00,,CLR,0.00,VWS V14.01,2013-05-12 15:24:00,
2013-05-12 10:29:00,66.9,53.5,30.23,SE,132,0.0,0.0,62,0.00,,CLR,0.00,VWS V14.01,2013-05-12 15:29:00,
2013-05-12 10:30:00,66.1,53.2,30.23,SE,132,0.0,1.0,63,0.00,,FEW045,0.00,VWS V14.01,2013-05-12 15:30:00,
2013-05-12 10:34:00,67.4,54.4,30.22,SE,132,0.0,0.0,63,0.00,,CLR,0.00,VWS V14.01,2013-05-12 15:34:00,
2013-05-12 10:39:00,68.6,53.7,30.22,SE,136,1.0,2.0,59,0.00,,CLR,0.00,VWS V14.01,2013-05-12 15:39:00,
2013-05-12 10:40:00,66.8,52.9,30.23,SE,132,0.0,1.0,61,0.00,,FEW045,0.00,VWS V14.01,2013-05-12 15:40:00,
2013-05-12 10:44:00,70.1,56.0,30.22,SE,140,0.0,4.0,61,0.00,,CLR,0.00,VWS V14.01,2013-05-12 15:44:00,
2013-05-12 10:49:00,71.0,53.5,30.21,SE,128,0.0,2.0,54,0.00,,CLR,0.00,VWS V14.01,2013-05-12 15:49:00,
2013-05-12 10:50:00,67.9,54.4,30.22,SE,132,0.0,1.0,62,0.00,,FEW045,0.00,VWS V14.01,2013-05-12 15:50:00,
2013-05-12 10:54:00,71.1,53.1,30.21,SSE,150,0.0,2.0,53,0.00,,CLR,0.00,VWS V14.01,2013-05-12 15:54:00,
2013-05-12 10:59:00,71.0,54.0,30.21,ESE,105,0.0,4.0,55,0.00,,CLR,0.00,VWS V14.01,2013-05-12 15:59:00,
2013-05-12 11:00:00,70.6,53.2,30.21,SE,127,0.0,4.0,54,0.00,,FEW045,0.00,VWS V14.01,2013-05-12 16:00:00,
2013-05-12 11:04:00,71.1,53.6,30.21,ESE,119,1.0,4.0,54,0.00,,CLR,0.00,VWS V14.01,2013-05-12 16:04:00,
2013-05-12 11:09:00,71.1,52.6,30.21,SE,128,0.0,5.0,52,0.00,,CLR,0.00,VWS V14.01,2013-05-12 16:09:00,
2013-05-12 11:10:00,71.0,53.5,30.21,SE,139,0.0,2.0,54,0.00,,FEW045,0.00,VWS V14.01,2013-05-12 16:10:00,
2013-05-12 11:14:00,71.3,52.8,30.21,SE,126,0.0,5.0,52,0.00,,CLR,0.00,VWS V14.01,2013-05-12 16:14:00,
2013-05-12 11:19:00,71.5,53.5,30.20,SE,127,0.0,1.0,53,0.00,,CLR,0.00,VWS V14.01,2013-05-12 16:19:00,
2013-05-12 11:20:00,71.1,53.1,30.21,ESE,121,0.0,4.0,53,0.00,,FEW045,0.00,VWS V14.01,2013-05-12 16:20:00,
2013-05-12 11:24:00,71.6,53.6,30.20,SE,126,0.0,1.0,53,0.00,,CLR,0.00,VWS V14.01,2013-05-12 16:24:00,
2013-05-12 11:29:00,71.6,55.6,30.20,ESE,105,0.0,0.0,57,0.00,,CLR,0.00,VWS V14.01,2013-05-12 16:29:00,
2013-05-12 11:30:00,71.3,53.8,30.20,SE,127,0.0,5.0,54,0.00,,FEW045,0.00,VWS V14.01,2013-05-12 16:30:00,
2013-05-12 11:34:00,71.6,53.6,30.20,SE,134,0.0,6.0,53,0.00,,CLR,0.00,VWS V14.01,2013-05-12 16:34:00,
2013-05-12 11:39:00,71.6,54.1,30.20,SSW,205,0.0,1.0,54,0.00,,CLR,0.00,VWS V14.01,2013-05-12 16:39:00,
2013-05-12 11:40:00,71.6,54.6,30.20,SE,128,0.0,2.0,55,0.00,,FEW045,0.00,VWS V14.01,2013-05-12 16:40:00,
2013-05-12 11:44:00,71.5,54.5,30.20,WSW,256,0.0,5.0,55,0.00,,CLR,0.00,VWS V14.01,2013-05-12 16:44:00,
2013-05-12 11:49:00,71.5,53.5,30.19,SE,126,2.0,2.0,53,0.00,,CLR,0.00,VWS V14.01,2013-05-12 16:49:00,
2013-05-12 11:50:00,71.6,53.6,30.20,SSW,205,0.0,6.0,53,0.00,,FEW045,0.00,VWS V14.01,2013-05-12 16:50:00,
2013-05-12 11:54:00,71.8,55.3,30.19,South,188,0.0,2.0,56,0.00,,CLR,0.00,VWS V14.01,2013-05-12 16:54:00,
2013-05-12 11:59:00,72.5,53.9,30.19,South,185,0.0,2.0,52,0.00,,CLR,0.00,VWS V14.01,2013-05-12 16:59:00,
2013-05-12 12:00:00,71.5,54.0,30.19,SE,124,0.0,5.0,54,0.00,,FEW045,0.00,VWS V14.01,2013-05-12 17:00:00,
2013-05-12 12:04:00,72.8,54.7,30.18,ESE,123,0.0,5.0,53,0.00,,CLR,0.00,VWS V14.01,2013-05-12 17:04:00,
2013-05-12 12:09:00,73.2,56.1,30.18,SE,124,1.0,1.0,55,0.00,,CLR,0.00,VWS V14.01,2013-05-12 17:09:00,
2013-05-12 12:10:00,72.2,55.2,30.19,South,187,0.0,2.0,55,0.00,,FEW045,0.00,VWS V14.01,2013-05-12 17:10:00,
2013-05-12 12:14:00,73.4,54.7,30.18,SE,124,0.0,1.0,52,0.00,,CLR,0.00,VWS V14.01,2013-05-12 17:14:00,
2013-05-12 12:19:00,73.5,53.2,30.19,SE,130,0.0,1.0,49,0.00,,CLR,0.00,VWS V14.01,2013-05-12 17:19:00,
2013-05-12 12:20:00,73.0,55.4,30.18,SE,125,0.0,5.0,54,0.00,,FEW045,0.00,VWS V14.01,2013-05-12 17:20:00,
2013-05-12 12:24:00,73.4,53.1,30.19,ESE,114,0.0,5.0,49,0.00,,CLR,0.00,VWS V14.01,2013-05-12 17:24:00,
2013-05-12 12:29:00,73.2,53.5,30.19,East,101,0.0,0.0,50,0.00,,CLR,0.00,VWS V14.01,2013-05-12 17:29:00,
2013-05-12 12:30:00,73.5,54.3,30.19,SE,125,0.0,2.0,51,0.00,,FEW045,0.00,VWS V14.01,2013-05-12 17:30:00,
2013-05-12 12:34:00,73.2,54.0,30.19,ESE,105,0.0,2.0,51,0.00,,CLR,0.00,VWS V14.01,2013-05-12 17:34:00,
2013-05-12 12:39:00,73.9,56.2,30.19,ESE,123,0.0,1.0,54,0.00,,CLR,0.00,VWS V14.01,2013-05-12 17:39:00,
2013-05-12 12:40:00,73.2,53.5,30.19,East,101,0.0,5.0,50,0.00,,FEW045,0.00,VWS V14.01,2013-05-12 17:40:00,
2013-05-12 12:44:00,74.2,54.4,30.19,ESE,123,0.0,4.0,50,0.00,,CLR,0.00,VWS V14.01,2013-05-12 17:44:00,
2013-05-12 12:49:00,74.6,54.2,30.19,East,87,0.0,4.0,49,0.00,,CLR,0.00,VWS V14.01,2013-05-12 17:49:00,
2013-05-12 12:50:00,73.5,53.2,30.19,ESE,123,0.0,4.0,49,0.00,,FEW045,0.00,VWS V14.01,2013-05-12 17:50:00,
2013-05-12 12:54:00,74.8,55.5,30.19,SE,129,0.0,7.0,51,0.00,,CLR,0.00,VWS V14.01,2013-05-12 17:54:00,
2013-05-12 12:59:00,75.3,52.5,30.19,SE,146,1.0,5.0,45,0.00,,CLR,0.00,VWS V14.01,2013-05-12 17:59:00,
2013-05-12 13:00:00,74.4,56.2,30.19,ESE,111,1.0,5.0,53,0.00,,FEW045,0.00,VWS V14.01,2013-05-12 18:00:00,
2013-05-12 13:04:00,76.2,58.4,30.18,SE,144,0.0,5.0,54,0.00,,CLR,0.00,VWS V14.01,2013-05-12 18:04:00,
2013-05-12 13:09:00,76.5,53.6,30.18,ESE,114,1.0,2.0,45,0.00,,CLR,0.00,VWS V14.01,2013-05-12 18:09:00,
2013-05-12 13:10:00,75.1,52.9,30.19,SE,126,0.0,7.0,46,0.00,,FEW045,0.00,VWS V14.01,2013-05-12 18:10:00,
2013-05-12 13:14:00,76.7,56.7,30.18,East,88,0.0,6.0,50,0.00,,CLR,0.00,VWS V14.01,2013-05-12 18:14:00,
2013-05-12 13:19:00,77.2,54.8,30.18,ESE,103,0.0,0.0,46,0.00,,CLR,0.00,VWS V14.01,2013-05-12 18:19:00,
2013-05-12 13:20:00,76.3,53.4,30.18,ESE,114,0.0,5.0,45,0.00,,FEW045,0.00,VWS V14.01,2013-05-12 18:20:00,
2013-05-12 13:24:00,77.8,54.8,30.18,ESE,121,0.0,4.0,45,0.00,,CLR,0.00,VWS V14.01,2013-05-12 18:24:00,
2013-05-12 13:29:00,78.3,55.8,30.18,ESE,120,0.0,1.0,46,0.00,,CLR,0.00,VWS V14.01,2013-05-12 18:29:00,
2013-05-12 13:30:00,76.9,53.3,30.18,ESE,103,0.0,6.0,44,0.00,,FEW045,0.00,VWS V14.01,2013-05-12 18:30:00,
2013-05-12 13:34:00,79.1,53.4,30.18,ENE,65,0.0,4.0,41,0.00,,CLR,0.00,VWS V14.01,2013-05-12 18:34:00,
2013-05-12 13:39:00,79.6,57.6,30.18,ESE,120,0.0,4.0,47,0.00,,CLR,0.00,VWS V14.01,2013-05-12 18:39:00,
2013-05-12 13:40:00,78.0,55.0,30.18,ESE,121,0.0,4.0,45,0.00,,FEW045,0.00,VWS V14.01,2013-05-12 18:40:00,
2013-05-12 13:44:00,79.3,54.9,30.18,ESE,118,0.0,5.0,43,0.00,,CLR,0.00,VWS V14.01,2013-05-12 18:44:00,
2013-05-12 13:49:00,79.1,52.0,30.18,NW,311,0.0,1.0,39,0.00,,CLR,0.00,VWS V14.01,2013-05-12 18:49:00,
2013-05-12 13:50:00,79.4,55.0,30.18,ENE,67,0.0,4.0,43,0.00,,FEW045,0.00,VWS V14.01,2013-05-12 18:50:00,
2013-05-12 13:54:00,79.1,54.1,30.18,NNW,334,0.0,1.0,42,0.00,,CLR,0.00,VWS V14.01,2013-05-12 18:54:00,
2013-05-12 13:59:00,79.6,53.8,30.18,ENE,74,1.0,1.0,41,0.00,,CLR,0.00,VWS V14.01,2013-05-12 18:59:00,
2013-05-12 14:00:00,79.1,51.3,30.18,NW,315,0.0,5.0,38,0.00,,FEW045,0.00,VWS V14.01,2013-05-12 19:00:00,
2013-05-12 14:04:00,79.8,54.0,30.18,SSE,151,0.0,4.0,41,0.00,,CLR,0.00,VWS V14.01,2013-05-12 19:04:00,
2013-05-12 14:09:00,80.2,53.7,30.18,SE,127,1.0,5.0,40,0.00,,CLR,0.00,VWS V14.01,2013-05-12 19:09:00,
2013-05-12 14:10:00,79.4,53.0,30.18,SE,142,0.0,2.0,40,0.00,,FEW045,0.00,VWS V14.01,2013-05-12 19:10:00,
2013-05-12 14:14:00,80.0,55.5,30.18,WNW,286,2.0,5.0,43,0.00,,CLR,0.00,VWS V14.01,2013-05-12 19:14:00,
2013-05-12 14:19:00,80.2,51.6,30.18,ESE,102,5.0,5.0,37,0.00,,CLR,0.00,VWS V14.01,2013-05-12 19:19:00,
2013-05-12 14:20:00,80.2,57.6,30.18,SSE,151,0.0,4.0,46,0.00,,FEW045,0.00,VWS V14.01,2013-05-12 19:20:00,
2013-05-12 14:24:00,79.8,50.5,30.18,NNE,22,1.0,7.0,36,0.00,,CLR,0.00,VWS V14.01,2013-05-12 19:24:00,
2013-05-12 14:29:00,79.8,56.0,30.18,NNW,333,2.0,2.0,44,0.00,,CLR,0.00,VWS V14.01,2013-05-12 19:29:00,
2013-05-12 14:30:00,80.2,54.4,30.18,ENE,66,2.0,5.0,41,0.00,,FEW045,0.00,VWS V14.01,2013-05-12 19:30:00,
2013-05-12 14:34:00,79.8,54.7,30.18,ENE,74,0.0,2.0,42,0.00,,CLR,0.00,VWS V14.01,2013-05-12 19:34:00,
2013-05-12 14:39:00,79.8,52.7,30.18,ENE,57,0.0,3.0,39,0.00,,CLR,0.00,VWS V14.01,2013-05-12 19:39:00,
2013-05-12 14:40:00,79.8,52.7,30.18,East,88,0.0,7.0,39,0.00,,FEW045,0.00,VWS V14.01,2013-05-12 19:40:00,
2013-05-12 14:44:00,79.8,52.7,30.18,WSW,243,0.0,3.0,39,0.00,,CLR,0.00,VWS V14.01,2013-05-12 19:44:00,
2013-05-12 14:49:00,79.8,53.4,30.17,South,188,0.0,1.0,40,0.00,,CLR,0.00,VWS V14.01,2013-05-12 19:49:00,
2013-05-12 14:50:00,79.8,52.0,30.18,SE,134,0.0,2.0,38,0.00,,FEW045,0.00,VWS V14.01,2013-05-12 19:50:00,
2013-05-12 14:54:00,79.4,54.3,30.17,SE,128,0.0,2.0,42,0.00,,CLR,0.00,VWS V14.01,2013-05-12 19:54:00,
2013-05-12 14:59:00,79.3,54.2,30.17,SSE,161,2.0,2.0,42,0.00,,CLR,0.00,VWS V14.01,2013-05-12 19:59:00,
2013-05-12 15:00:00,79.8,52.7,30.17,South,188,0.0,3.0,39,0.00,,FEW045,0.00,VWS V14.01,2013-05-12 20:00:00,
2013-05-12 15:04:00,79.4,53.0,30.17,East,95,0.0,4.0,40,0.00,,CLR,0.00,VWS V14.01,2013-05-12 20:04:00,
2013-05-12 15:09:00,79.4,53.0,30.17,ESE,105,0.0,0.0,40,0.00,,CLR,0.00,VWS V14.01,2013-05-12 20:09:00,
2013-05-12 15:10:00,79.4,51.6,30.17,SSE,165,1.0,2.0,38,0.00,,FEW045,0.00,VWS V14.01,2013-05-12 20:10:00,
2013-05-12 15:14:00,79.6,51.1,30.17,ESE,116,0.0,4.0,37,0.00,,CLR,0.00,VWS V14.01,2013-05-12 20:14:00,
2013-05-12 15:19:00,79.6,51.1,30.17,NE,42,0.0,0.0,37,0.00,,CLR,0.00,VWS V14.01,2013-05-12 20:19:00,
2013-05-12 15:20:00,79.4,53.0,30.17,ESE,105,0.0,5.0,40,0.00,,FEW045,0.00,VWS V14.01,2013-05-12 20:20:00,
2013-05-12 15:24:00,79.6,53.2,30.17,NW,311,1.0,4.0,40,0.00,,CLR,0.00,VWS V14.01,2013-05-12 20:24:00,
2013-05-12 15:29:00,79.8,52.0,30.17,NW,311,0.0,1.0,38,0.00,,CLR,0.00,VWS V14.01,2013-05-12 20:29:00,
2013-05-12 15:30:00,79.6,53.2,30.17,ENE,59,0.0,4.0,40,0.00,,FEW045,0.00,VWS V14.01,2013-05-12 20:30:00,
2013-05-12 15:34:00,80.0,51.4,30.17,NE,54,0.0,2.0,37,0.00,,CLR,0.00,VWS V14.01,2013-05-12 20:34:00,
2013-05-12 15:39:00,80.2,50.8,30.17,NE,49,0.0,1.0,36,0.00,,CLR,0.00,VWS V14.01,2013-05-12 20:39:00,
2013-05-12 15:40:00,79.8,52.0,30.17,NW,311,1.0,4.0,38,0.00,,CLR,0.00,VWS V14.01,2013-05-12 20:40:00,
2013-05-12 15:44:00,80.2,51.6,30.17,ENE,74,0.0,3.0,37,0.00,,CLR,0.00,VWS V14.01,2013-05-12 20:44:00,
2013-05-12 15:49:00,79.8,52.7,30.16,SE,132,0.0,5.0,39,0.00,,CLR,0.00,VWS V14.01,2013-05-12 20:49:00,
2013-05-12 15:50:00,80.2,52.3,30.17,NE,49,0.0,2.0,38,0.00,,FEW045,0.00,VWS V14.01,2013-05-12 20:50:00,
2013-05-12 15:54:00,79.6,52.5,30.16,SE,132,1.0,5.0,39,0.00,,CLR,0.00,VWS V14.01,2013-05-12 20:54:00,
2013-05-12 15:59:00,79.6,51.8,30.16,SE,128,1.0,1.0,38,0.00,,CLR,0.00,VWS V14.01,2013-05-12 20:59:00,
2013-05-12 16:00:00,80.0,52.8,30.16,East,101,0.0,3.0,39,0.00,,CLR,0.00,VWS V14.01,2013-05-12 21:00:00,
2013-05-12 16:04:00,79.6,53.8,30.15,SSE,167,0.0,2.0,41,0.00,,CLR,0.00,VWS V14.01,2013-05-12 21:04:00,
2013-05-12 16:09:00,79.6,50.3,30.15,SE,128,0.0,1.0,36,0.00,,CLR,0.00,VWS V14.01,2013-05-12 21:09:00,
2013-05-12 16:10:00,79.6,50.3,30.16,SE,129,0.0,5.0,36,0.00,,CLR,0.00,VWS V14.01,2013-05-12 21:10:00,
2013-05-12 16:14:00,79.6,53.8,30.15,SE,128,0.0,1.0,41,0.00,,CLR,0.00,VWS V14.01,2013-05-12 21:14:00,
2013-05-12 16:19:00,79.6,51.8,30.14,SSE,149,0.0,1.0,38,0.00,,CLR,0.00,VWS V14.01,2013-05-12 21:19:00,
2013-05-12 16:20:00,79.6,52.5,30.15,SSE,167,0.0,2.0,39,0.00,,CLR,0.00,VWS V14.01,2013-05-12 21:20:00,
2013-05-12 16:24:00,79.6,51.8,30.14,SSE,148,0.0,1.0,38,0.00,,CLR,0.00,VWS V14.01,2013-05-12 21:24:00,
2013-05-12 16:29:00,79.4,50.9,30.14,SE,134,0.0,1.0,37,0.00,,CLR,0.00,VWS V14.01,2013-05-12 21:29:00,
2013-05-12 16:30:00,79.6,51.1,30.14,SSE,159,0.0,5.0,37,0.00,,CLR,0.00,VWS V14.01,2013-05-12 21:30:00,
2013-05-12 16:34:00,79.4,53.7,30.13,SE,132,0.0,2.0,41,0.00,,CLR,0.00,VWS V14.01,2013-05-12 21:34:00,
2013-05-12 16:39:00,79.1,47.6,30.13,ESE,119,0.0,2.0,33,0.00,,CLR,0.00,VWS V14.01,2013-05-12 21:39:00,
2013-05-12 16:40:00,79.4,51.6,30.14,SE,133,0.0,2.0,38,0.00,,FEW045,0.00,VWS V14.01,2013-05-12 21:40:00,
2013-05-12 16:44:00,78.7,52.4,30.13,SSE,163,0.0,2.0,40,0.00,,CLR,0.00,VWS V14.01,2013-05-12 21:44:00,
2013-05-12 16:49:00,78.5,51.5,30.12,SE,126,0.0,6.0,39,0.00,,CLR,0.00,VWS V14.01,2013-05-12 21:49:00,
2013-05-12 16:50:00,79.3,50.8,30.13,SE,132,0.0,2.0,37,0.00,,FEW045,0.00,VWS V14.01,2013-05-12 21:50:00,
2013-05-12 16:54:00,78.1,49.0,30.12,ESE,123,1.0,6.0,36,0.00,,CLR,0.00,VWS V14.01,2013-05-12 21:54:00,
2013-05-12 16:59:00,78.1,52.5,30.12,East,80,0.0,0.0,41,0.00,,CLR,0.00,VWS V14.01,2013-05-12 21:59:00,
2013-05-12 17:00:00,78.5,52.2,30.12,SE,126,0.0,4.0,40,0.00,,FEW045,0.00,VWS V14.01,2013-05-12 22:00:00,
2013-05-12 17:04:00,78.1,50.5,30.12,East,81,0.0,1.0,38,0.00,,CLR,0.00,VWS V14.01,2013-05-12 22:04:00,
2013-05-12 17:09:00,78.1,51.2,30.12,East,82,0.0,1.0,39,0.00,,CLR,0.00,VWS V14.01,2013-05-12 22:09:00,
2013-05-12 17:10:00,78.1,49.0,30.12,East,80,0.0,6.0,36,0.00,,FEW045,0.00,VWS V14.01,2013-05-12 22:10:00,
2013-05-12 17:14:00,78.3,49.9,30.12,ESE,123,1.0,4.0,37,0.00,,CLR,0.00,VWS V14.01,2013-05-12 22:14:00,
2013-05-12 17:19:00,78.5,50.1,30.12,ESE,123,0.0,1.0,37,0.00,,CLR,0.00,VWS V14.01,2013-05-12 22:19:00,
2013-05-12 17:20:00,78.1,49.0,30.12,East,82,0.0,1.0,36,0.00,,FEW045,0.00,VWS V14.01,2013-05-12 22:20:00,
2013-05-12 17:24:00,78.7,52.4,30.12,ENE,65,0.0,2.0,40,0.00,,CLR,0.00,VWS V14.01,2013-05-12 22:24:00,
2013-05-12 17:29:00,78.3,49.9,30.12,ENE,65,0.0,1.0,37,0.00,,CLR,0.00,VWS V14.01,2013-05-12 22:29:00,
2013-05-12 17:30:00,78.5,52.2,30.12,ESE,123,0.0,4.0,40,0.00,,CLR,0.00,VWS V14.01,2013-05-12 22:30:00,
2013-05-12 17:34:00,78.0,51.1,30.11,ENE,73,0.0,1.0,39,0.00,,CLR,0.00,VWS V14.01,2013-05-12 22:34:00,
2013-05-12 17:39:00,77.6,52.1,30.11,East,80,0.0,2.0,41,0.00,,CLR,0.00,VWS V14.01,2013-05-12 22:39:00,
2013-05-12 17:40:00,78.5,53.5,30.12,ENE,65,0.0,2.0,42,0.00,,FEW045,0.00,VWS V14.01,2013-05-12 22:40:00,
2013-05-12 17:44:00,77.2,51.7,30.11,East,80,0.0,2.0,41,0.00,,CLR,0.00,VWS V14.01,2013-05-12 22:44:00,
2013-05-12 17:49:00,77.1,50.3,30.11,ESE,123,0.0,2.0,39,0.00,,CLR,0.00,VWS V14.01,2013-05-12 22:49:00,
2013-05-12 17:50:00,77.6,50.0,30.11,ENE,74,0.0,1.0,38,0.00,,FEW045,0.00,VWS V14.01,2013-05-12 22:50:00,
2013-05-12 17:54:00,77.2,51.7,30.11,ESE,123,1.0,2.0,41,0.00,,CLR,0.00,VWS V14.01,2013-05-12 22:54:00,
2013-05-12 17:59:00,77.6,52.1,30.11,ESE,122,0.0,0.0,41,0.00,,CLR,0.00,VWS V14.01,2013-05-12 22:59:00,
2013-05-12 18:00:00,77.1,52.3,30.11,SE,127,2.0,5.0,42,0.00,,FEW045,0.00,VWS V14.01,2013-05-12 23:00:00,
2013-05-12 18:04:00,77.6,50.7,30.11,ESE,122,0.0,1.0,39,0.00,,CLR,0.00,VWS V14.01,2013-05-12 23:04:00,
2013-05-12 18:09:00,77.4,46.9,30.11,ESE,104,2.0,4.0,34,0.00,,CLR,0.00,VWS V14.01,2013-05-12 23:09:00,
2013-05-12 18:10:00,77.4,51.9,30.11,ESE,123,0.0,2.0,41,0.00,,FEW045,0.00,VWS V14.01,2013-05-12 23:10:00,
2013-05-12 18:14:00,77.4,47.6,30.11,South,180,1.0,4.0,35,0.00,,CLR,0.00,VWS V14.01,2013-05-12 23:14:00,
2013-05-12 18:19:00,77.2,45.9,30.11,WSW,257,3.0,3.0,33,0.00,,CLR,0.00,VWS V14.01,2013-05-12 23:19:00,
2013-05-12 18:20:00,77.6,47.0,30.11,ESE,122,0.0,2.0,34,0.00,,FEW045,0.00,VWS V14.01,2013-05-12 23:20:00,
2013-05-12 18:24:00,77.1,45.8,30.11,ESE,113,0.0,3.0,33,0.00,,CLR,0.00,VWS V14.01,2013-05-12 23:24:00,
2013-05-12 18:29:00,77.1,45.8,30.11,ESE,123,2.0,6.0,33,0.00,,CLR,0.00,VWS V14.01,2013-05-12 23:29:00,
2013-05-12 18:30:00,77.2,48.2,30.11,ESE,105,0.0,4.0,36,0.00,,FEW045,0.00,VWS V14.01,2013-05-12 23:30:00,
2013-05-12 18:34:00,77.1,45.0,30.10,East,101,0.0,6.0,32,0.00,,CLR,0.00,VWS V14.01,2013-05-12 23:34:00,
2013-05-12 18:39:00,76.9,47.2,30.10,SE,124,0.0,1.0,35,0.00,,CLR,0.00,VWS V14.01,2013-05-12 23:39:00,
2013-05-12 18:40:00,77.1,45.8,30.11,ESE,121,0.0,3.0,33,0.00,,FEW045,0.00,VWS V14.01,2013-05-12 23:40:00,
2013-05-12 18:44:00,76.7,47.8,30.10,SE,127,0.0,1.0,36,0.00,,CLR,0.00,VWS V14.01,2013-05-12 23:44:00,
2013-05-12 18:49:00,76.5,49.0,30.10,ESE,117,0.0,0.0,38,0.00,,CLR,0.00,VWS V14.01,2013-05-12 23:49:00,
2013-05-12 18:50:00,77.1,47.4,30.10,ESE,103,0.0,6.0,35,0.00,,FEW045,0.00,VWS V14.01,2013-05-12 23:50:00,
2013-05-12 18:54:00,76.3,49.5,30.10,ESE,117,0.0,0.0,39,0.00,,CLR,0.00,VWS V14.01,2013-05-12 23:54:00,
2013-05-12 18:59:00,76.2,49.5,30.10,ESE,119,0.0,0.0,39,0.00,,CLR,0.00,VWS V14.01,2013-05-12 23:59:00,
2013-05-12 19:00:00,76.7,47.8,30.10,ESE,117,0.0,1.0,36,0.00,,FEW045,0.00,VWS V14.01,2013-05-13 00:00:00,
2013-05-12 19:04:00,76.0,49.3,30.10,ESE,119,0.0,0.0,39,0.00,,CLR,0.00,VWS V14.01,2013-05-13 00:04:00,
2013-05-12 19:09:00,75.8,49.8,30.10,ESE,119,0.0,0.0,40,0.00,,CLR,0.00,VWS V14.01,2013-05-13 00:09:00,
2013-05-12 19:10:00,76.2,49.5,30.10,ESE,119,0.0,4.0,39,0.00,,FEW045,0.00,VWS V14.01,2013-05-13 00:10:00,
2013-05-12 19:14:00,75.6,48.9,30.10,ESE,119,0.0,0.0,39,0.00,,CLR,0.00,VWS V14.01,2013-05-13 00:14:00,
2013-05-12 19:19:00,75.3,50.0,30.11,ESE,119,0.0,0.0,41,0.00,,CLR,0.00,VWS V14.01,2013-05-13 00:19:00,
2013-05-12 19:20:00,75.8,49.1,30.10,ESE,119,0.0,0.0,39,0.00,,FEW045,0.00,VWS V14.01,2013-05-13 00:20:00,
2013-05-12 19:24:00,75.1,49.8,30.11,ESE,119,0.0,0.0,41,0.00,,CLR,0.00,VWS V14.01,2013-05-13 00:24:00,
2013-05-12 19:29:00,74.9,49.6,30.11,ESE,119,0.0,0.0,41,0.00,,CLR,0.00,VWS V14.01,2013-05-13 00:29:00,
2013-05-12 19:30:00,75.5,50.2,30.11,ESE,119,0.0,0.0,41,0.00,,FEW045,0.00,VWS V14.01,2013-05-13 00:30:00,
2013-05-12 19:34:00,74.6,52.5,30.12,ESE,119,0.0,0.0,46,0.00,,CLR,0.00,VWS V14.01,2013-05-13 00:34:00,
2013-05-12 19:39:00,74.2,51.5,30.12,ESE,119,0.0,0.0,45,0.00,,CLR,0.00,VWS V14.01,2013-05-13 00:39:00,
2013-05-12 19:40:00,74.9,49.6,30.11,ESE,119,0.0,0.0,41,0.00,,FEW045,0.00,VWS V14.01,2013-05-13 00:40:00,
2013-05-12 19:44:00,73.5,50.9,30.12,ESE,119,0.0,0.0,45,0.00,,CLR,0.00,VWS V14.01,2013-05-13 00:44:00,
2013-05-12 19:49:00,73.2,52.9,30.12,ESE,119,0.0,0.0,49,0.00,,CLR,0.00,VWS V14.01,2013-05-13 00:49:00,
2013-05-12 19:50:00,74.4,52.9,30.12,ESE,119,0.0,0.0,47,0.00,,FEW045,0.00,VWS V14.01,2013-05-13 00:50:00,
2013-05-12 19:54:00,72.8,52.5,30.12,ESE,119,0.0,0.0,49,0.00,,CLR,0.00,VWS V14.01,2013-05-13 00:54:00,
2013-05-12 19:59:00,72.5,52.8,30.12,ESE,119,0.0,0.0,50,0.00,,CLR,0.00,VWS V14.01,2013-05-13 00:59:00,
2013-05-12 20:00:00,73.4,52.0,30.12,ESE,119,0.0,0.0,47,0.00,,FEW045,0.00,VWS V14.01,2013-05-13 01:00:00,
2013-05-12 20:04:00,72.0,54.0,30.12,ESE,119,0.0,0.0,53,0.00,,CLR,0.00,VWS V14.01,2013-05-13 01:04:00,
2013-05-12 20:09:00,71.6,53.1,30.12,ESE,119,0.0,0.0,52,0.00,,CLR,0.00,VWS V14.01,2013-05-13 01:09:00,
2013-05-12 20:10:00,72.5,53.4,30.12,ESE,119,0.0,0.0,51,0.00,,FEW045,0.00,VWS V14.01,2013-05-13 01:10:00,
2013-05-12 20:14:00,71.3,51.7,30.12,ESE,119,0.0,0.0,50,0.00,,CLR,0.00,VWS V14.01,2013-05-13 01:14:00,
2013-05-12 20:19:00,71.0,53.5,30.14,ESE,119,0.0,0.0,54,0.00,,CLR,0.00,VWS V14.01,2013-05-13 01:19:00,
2013-05-12 20:20:00,71.8,52.7,30.12,ESE,119,0.0,0.0,51,0.00,,FEW045,0.00,VWS V14.01,2013-05-13 01:20:00,
2013-05-12 20:24:00,70.4,53.0,30.14,ESE,119,0.0,0.0,54,0.00,,CLR,0.00,VWS V14.01,2013-05-13 01:24:00,
2013-05-12 20:29:00,70.1,52.2,30.14,ESE,119,0.0,0.0,53,0.00,,CLR,0.00,VWS V14.01,2013-05-13 01:29:00,
2013-05-12 20:30:00,71.1,52.1,30.14,ESE,119,0.0,0.0,51,0.00,,FEW045,0.00,VWS V14.01,2013-05-13 01:30:00,
2013-05-12 20:34:00,69.6,52.2,30.14,ESE,119,0.0,0.0,54,0.00,,CLR,0.00,VWS V14.01,2013-05-13 01:34:00,
2013-05-12 20:39:00,69.3,52.0,30.14,ESE,119,0.0,0.0,54,0.00,,CLR,0.00,VWS V14.01,2013-05-13 01:39:00,
2013-05-12 20:40:00,70.3,52.4,30.14,ESE,119,0.0,0.0,53,0.00,,FEW045,0.00,VWS V14.01,2013-05-13 01:40:00,
2013-05-12 20:44:00,68.8,52.0,30.14,ESE,119,0.0,0.0,55,0.00,,CLR,0.00,VWS V14.01,2013-05-13 01:44:00,
2013-05-12 20:49:00,68.4,51.6,30.15,ESE,119,0.0,0.0,55,0.00,,CLR,0.00,VWS V14.01,2013-05-13 01:49:00,
2013-05-12 20:50:00,69.3,52.0,30.14,ESE,119,0.0,0.0,54,0.00,,FEW045,0.00,VWS V14.01,2013-05-13 01:50:00,
2013-05-12 20:54:00,68.3,51.5,30.15,ESE,119,0.0,0.0,55,0.00,,CLR,0.00,VWS V14.01,2013-05-13 01:54:00,
2013-05-12 20:59:00,67.9,51.2,30.15,ESE,119,0.0,0.0,55,0.00,,CLR,0.00,VWS V14.01,2013-05-13 01:59:00,
2013-05-12 21:00:00,68.6,51.8,30.15,ESE,119,0.0,0.0,55,0.00,,FEW045,0.00,VWS V14.01,2013-05-13 02:00:00,
2013-05-12 21:04:00,67.6,51.4,30.15,ESE,119,0.0,0.0,56,0.00,,CLR,0.00,VWS V14.01,2013-05-13 02:04:00,
2013-05-12 21:09:00,67.4,53.0,30.15,ESE,119,0.0,0.0,60,0.00,,CLR,0.00,VWS V14.01,2013-05-13 02:09:00,
2013-05-12 21:10:00,67.9,51.2,30.15,ESE,119,0.0,0.0,55,0.00,,FEW045,0.00,VWS V14.01,2013-05-13 02:10:00,
2013-05-12 21:14:00,67.1,52.3,30.15,ESE,119,0.0,0.0,59,0.00,,CLR,0.00,VWS V14.01,2013-05-13 02:14:00,
2013-05-12 21:19:00,66.9,53.0,30.15,ESE,119,0.0,0.0,61,0.00,,CLR,0.00,VWS V14.01,2013-05-13 02:19:00,
2013-05-12 21:20:00,67.4,52.1,30.15,ESE,119,0.0,0.0,58,0.00,,FEW045,0.00,VWS V14.01,2013-05-13 02:20:00,
2013-05-12 21:24:00,66.6,51.8,30.15,ESE,119,0.0,0.0,59,0.00,,CLR,0.00,VWS V14.01,2013-05-13 02:24:00,
2013-05-12 21:29:00,66.4,52.1,30.15,ESE,119,0.0,0.0,60,0.00,,CLR,0.00,VWS V14.01,2013-05-13 02:29:00,
2013-05-12 21:30:00,66.9,52.6,30.15,ESE,119,0.0,0.0,60,0.00,,FEW045,0.00,VWS V14.01,2013-05-13 02:30:00,
2013-05-12 21:34:00,66.1,53.6,30.16,ESE,119,0.0,0.0,64,0.00,,CLR,0.00,VWS V14.01,2013-05-13 02:34:00,
2013-05-12 21:39:00,65.6,52.2,30.16,ESE,119,0.0,0.0,62,0.00,,CLR,0.00,VWS V14.01,2013-05-13 02:39:00,
2013-05-12 21:40:00,66.4,51.7,30.15,ESE,119,0.0,0.0,59,0.00,,FEW045,0.00,VWS V14.01,2013-05-13 02:40:00,
2013-05-12 21:44:00,65.3,53.2,30.16,ESE,119,0.0,0.0,65,0.00,,CLR,0.00,VWS V14.01,2013-05-13 02:44:00,
2013-05-12 21:49:00,65.0,54.2,30.16,ESE,119,0.0,0.0,68,0.00,,CLR,0.00,VWS V14.01,2013-05-13 02:49:00,
2013-05-12 21:50:00,65.8,52.9,30.16,ESE,119,0.0,0.0,63,0.00,,FEW045,0.00,VWS V14.01,2013-05-13 02:50:00,
2013-05-12 21:54:00,64.8,55.6,30.16,ESE,119,0.0,0.0,72,0.00,,CLR,0.00,VWS V14.01,2013-05-13 02:54:00,
2013-05-12 21:59:00,64.7,55.9,30.16,ESE,119,0.0,0.0,73,0.00,,CLR,0.00,VWS V14.01,2013-05-13 02:59:00,
2013-05-12 22:00:00,65.1,53.9,30.16,ESE,119,0.0,0.0,67,0.00,,FEW045,0.00,VWS V14.01,2013-05-13 03:00:00,
2013-05-12 22:04:00,64.5,55.7,30.17,ESE,119,0.0,0.0,73,0.00,,CLR,0.00,VWS V14.01,2013-05-13 03:04:00,
2013-05-12 22:09:00,64.3,55.1,30.17,ESE,119,0.0,0.0,72,0.00,,CLR,0.00,VWS V14.01,2013-05-13 03:09:00,
2013-05-12 22:10:00,64.8,55.6,30.16,ESE,119,0.0,0.0,72,0.00,,FEW045,0.00,VWS V14.01,2013-05-13 03:10:00,
2013-05-12 22:14:00,64.2,55.0,30.17,ESE,119,0.0,0.0,72,0.00,,CLR,0.00,VWS V14.01,2013-05-13 03:14:00,
2013-05-12 22:19:00,63.8,54.6,30.17,ESE,119,0.0,0.0,72,0.00,,CLR,0.00,VWS V14.01,2013-05-13 03:19:00,
2013-05-12 22:20:00,64.3,55.1,30.17,ESE,119,0.0,0.0,72,0.00,,FEW045,0.00,VWS V14.01,2013-05-13 03:20:00,
2013-05-12 22:24:00,63.7,54.9,30.17,ESE,119,0.0,0.0,73,0.00,,CLR,0.00,VWS V14.01,2013-05-13 03:24:00,
2013-05-12 22:29:00,63.4,54.2,30.17,ESE,119,0.0,0.0,72,0.00,,CLR,0.00,VWS V14.01,2013-05-13 03:29:00,
2013-05-12 22:30:00,64.0,54.8,30.17,ESE,119,0.0,0.0,72,0.00,,FEW045,0.00,VWS V14.01,2013-05-13 03:30:00,
2013-05-12 22:34:00,63.2,54.4,30.17,ESE,119,0.0,0.0,73,0.00,,CLR,0.00,VWS V14.01,2013-05-13 03:34:00,
2013-05-12 22:39:00,63.0,54.2,30.17,ESE,119,0.0,0.0,73,0.00,,CLR,0.00,VWS V14.01,2013-05-13 03:39:00,
2013-05-12 22:40:00,63.5,54.3,30.17,ESE,119,0.0,0.0,72,0.00,,FEW045,0.00,VWS V14.01,2013-05-13 03:40:00,
2013-05-12 22:44:00,62.7,53.9,30.17,ESE,119,0.0,0.0,73,0.00,,CLR,0.00,VWS V14.01,2013-05-13 03:44:00,
2013-05-12 22:49:00,62.4,53.3,30.18,ESE,119,0.0,0.0,72,0.00,,CLR,0.00,VWS V14.01,2013-05-13 03:49:00,
2013-05-12 22:50:00,63.0,54.2,30.17,ESE,119,0.0,0.0,73,0.00,,FEW045,0.00,VWS V14.01,2013-05-13 03:50:00,
2013-05-12 22:54:00,62.1,53.7,30.18,ESE,119,0.0,0.0,74,0.00,,CLR,0.00,VWS V14.01,2013-05-13 03:54:00,
2013-05-12 22:59:00,61.9,53.5,30.18,ESE,119,0.0,0.0,74,0.00,,CLR,0.00,VWS V14.01,2013-05-13 03:59:00,
2013-05-12 23:00:00,62.6,53.5,30.18,ESE,119,0.0,0.0,72,0.00,,FEW045,0.00,VWS V14.01,2013-05-13 04:00:00,
2013-05-12 23:01:00,61.8,53.4,30.18,ESE,119,0.0,0.0,74,0.00,,CLR,0.00,VWS V14.01,2013-05-13 04:01:00,
2013-05-12 23:06:00,61.8,54.5,30.18,ESE,119,0.0,0.0,77,0.00,,CLR,0.00,VWS V14.01,2013-05-13 04:06:00,
2013-05-12 23:10:00,61.9,53.5,30.18,ESE,119,0.0,0.0,74,0.00,,FEW045,0.00,VWS V14.01,2013-05-13 04:10:00,
2013-05-12 23:11:00,61.6,55.0,30.18,ESE,119,0.0,0.0,79,0.00,,CLR,0.00,VWS V14.01,2013-05-13 04:11:00,
2013-05-12 23:16:00,61.5,54.9,30.18,ESE,119,0.0,0.0,79,0.00,,CLR,0.00,VWS V14.01,2013-05-13 04:16:00,
2013-05-12 23:20:00,61.8,54.5,30.18,ESE,119,0.0,0.0,77,0.00,,FEW045,0.00,VWS V14.01,2013-05-13 04:20:00,
2013-05-12 23:21:00,61.3,55.1,30.18,ESE,119,0.0,0.0,80,0.00,,CLR,0.00,VWS V14.01,2013-05-13 04:21:00,
2013-05-12 23:26:00,61.1,55.2,30.18,ESE,119,0.0,0.0,81,0.00,,CLR,0.00,VWS V14.01,2013-05-13 04:26:00,
2013-05-12 23:30:00,61.5,55.3,30.18,ESE,119,0.0,0.0,80,0.00,,FEW045,0.00,VWS V14.01,2013-05-13 04:30:00,
2013-05-12 23:31:00,61.0,55.1,30.18,ESE,119,0.0,0.0,81,0.00,,CLR,0.00,VWS V14.01,2013-05-13 04:31:00,
2013-05-12 23:36:00,60.8,54.9,30.17,ESE,119,0.0,0.0,81,0.00,,CLR,0.00,VWS V14.01,2013-05-13 04:36:00,
2013-05-12 23:40:00,61.1,55.2,30.18,ESE,119,0.0,0.0,81,0.00,,FEW045,0.00,VWS V14.01,2013-05-13 04:40:00,
2013-05-12 23:41:00,60.7,54.8,30.17,ESE,119,0.0,0.0,81,0.00,,CLR,0.00,VWS V14.01,2013-05-13 04:41:00,
2013-05-12 23:46:00,60.4,54.5,30.17,ESE,119,0.0,0.0,81,0.00,,CLR,0.00,VWS V14.01,2013-05-13 04:46:00,
2013-05-12 23:50:00,60.8,54.9,30.17,ESE,119,0.0,0.0,81,0.00,,FEW045,0.00,VWS V14.01,2013-05-13 04:50:00,
2013-05-12 23:51:00,60.2,54.7,30.18,ESE,119,0.0,0.0,82,0.00,,CLR,0.00,VWS V14.01,2013-05-13 04:51:00,
2013-05-12 23:56:00,60.2,54.7,30.18,ESE,119,0.0,0.0,82,0.00,,CLR,0.00,VWS V14.01,2013-05-13 04:56:00,